Terminal Aerodrome Forecast
Issued by NWS Amarillo, TX

Home | Current Version | Previous Version | Text Only | Print | Product List | Glossary On
Versions: 1 2 3 4 5 6 7 8 9 10 11 12 13 14 15 16 17 18 19 20 21 22 23 24
000
FTUS44 KAMA 172330
TAFDHT
TAF
KDHT 172330Z 1800/1824 22008KT P6SM SKC
     FM180400 18007KT P6SM VCSH SCT015 OVC020
     FM180700 21007KT 4SM BR OVC008
     FM181400 21008KT P6SM SCT200=

USA.gov is the U.S. government's official web portal to all federal, state and local government web resources and services.